EW0767 Weather Reports


time (UTC)temp
C
wind
direction
speed
KPH
gust
KPH
rain 1hr
cm
rain 24hr
cm
rain mn
cm
humidity
%
barometer
mb
20260510175020 21 215 0.0 1.6 0.00 0.71 0.00 61 1011.2
20260510174337 21 120 0.0 3.2 0.00 0.71 0.00 67 1011.2
20260510173141 20 212 0.0 0.0 0.00 0.71 0.00 67 1011.2
20260510172020 20 228 0.0 1.6 0.00 0.71 0.00 68 1011.2
20260510170136 20 65 0.0 1.6 0.00 0.71 0.00 70 1011.5
20260510164333 20 226 1.6 1.6 0.00 0.74 0.00 67 1011.5
20260510163138 20 120 0.0 1.6 0.00 0.74 0.00 68 1011.7
20260510162023 20 221 1.6 3.2 0.00 0.74 0.00 66 1011.7
20260510161334 20 236 1.6 3.2 0.00 0.74 0.00 71 1011.7
20260510160134 19 215 0.0 1.6 0.00 0.74 0.00 75 1011.6
20260510155023 19 224 1.6 3.2 0.00 0.76 0.00 73 1011.8
20260510154339 18 232 1.6 4.8 0.00 0.76 0.00 78 1011.9
20260510153141 18 253 1.6 6.4 0.00 0.76 0.00 77 1012.0
20260510151334 17 200 0.0 1.6 0.00 0.76 0.00 81 1012.1
20260510150134 16 215 0.0 1.6 0.00 0.76 0.00 83 1012.0
20260510144337 15 218 1.6 3.2 0.00 0.76 0.00 87 1011.9
20260510143137 15 231 0.0 0.0 0.00 0.76 0.00 89 1011.9
20260510142019 15 219 0.0 1.6 0.00 0.76 0.00 89 1012.0
20260510141336 14 172 0.0 0.0 0.00 0.76 0.00 91 1012.1
20260510140136 13 184 0.0 0.0 0.00 0.76 0.00 92 1012.0
20260510135022 13 232 0.0 1.6 0.00 0.76 0.00 93 1011.9
20260510134339 12 225 0.0 1.6 0.00 0.76 0.00 95 1011.9
20260510133134 12 218 0.0 1.6 0.00 0.76 0.00 95 1011.9
20260510132019 12 56 0.0 0.0 0.00 0.76 0.00 98 1011.9
20260510131336 12 212 0.0 0.0 0.00 0.76 0.00 99 1011.9
20260510130139 12 212 0.0 0.0 0.00 0.76 0.00 99 1012.1
20260510125017 11 212 0.0 0.0 0.00 0.76 0.00 99 1011.9
20260510124022 11 212 0.0 0.0 0.00 0.76 0.00 100 1011.7
20260510123137 11 212 0.0 0.0 0.00 0.76 0.00 100 1011.7
20260510122019 11 212 0.0 0.0 0.00 0.76 0.00 100 1011.7
20260510121336 11 212 0.0 0.0 0.00 0.76 0.00 100 1011.7
20260510120135 10 212 0.0 0.0 0.00 0.76 0.00 100 1011.7
20260510114338 10 212 0.0 0.0 0.00 0.76 0.00 100 1011.5
20260510113137 10 212 0.0 0.0 0.00 0.76 0.00 100 1011.5
20260510112019 10 212 0.0 0.0 0.00 0.81 0.00 100 1011.2
20260510110134 10 212 0.0 0.0 0.00 0.81 0.00 100 1011.4
20260510105022 10 212 0.0 0.0 0.00 0.81 0.00 100 1011.0
20260510104333 10 212 0.0 0.0 0.00 0.81 0.00 100 1011.2
20260510101338 10 212 0.0 0.0 0.00 0.84 0.00 100 1010.8
20260510100137 9 212 0.0 0.0 0.00 0.84 0.00 100 1010.8
20260510095017 9 210 0.0 1.6 0.00 0.84 0.00 100 1010.4
20260510094335 9 217 0.0 1.6 0.00 0.86 0.00 100 1010.4
20260510091336 9 218 0.0 0.0 0.00 0.86 0.00 100 1010.6
20260510085020 9 218 0.0 0.0 0.00 0.91 0.00 100 1010.7
20260510084337 9 218 0.0 1.6 0.00 0.91 0.00 100 1010.8
20260510083132 9 242 0.0 1.6 0.00 0.94 0.00 100 1011.0
20260510082623 9 225 0.0 0.0 0.00 0.97 0.00 100 1010.9
20260510081334 9 226 0.0 0.0 0.00 0.99 0.00 99 1010.8
20260510080134 9 225 0.0 0.0 0.00 0.99 0.00 99 1010.8
20260510075021 9 226 0.0 1.6 0.00 0.99 0.00 99 1010.9
20260510071336 9 226 0.0 0.0 0.00 0.99 0.00 99 1010.6
20260510064338 10 225 0.0 0.0 0.00 0.99 0.00 99 1010.8
20260510063135 10 316 0.0 0.0 0.00 0.99 0.00 99 1010.8
20260510062023 10 316 0.0 0.0 0.00 0.99 0.00 99 1010.7
20260510061340 10 316 0.0 0.0 0.00 0.99 0.00 99 1010.6
20260510060136 10 316 0.0 0.0 0.00 0.99 0.00 99 1010.4
20260510055018 10 316 0.0 0.0 0.00 0.99 0.00 99 1010.5
20260510054334 10 316 0.0 0.0 0.00 0.99 0.00 99 1010.5
20260510053022 10 316 0.0 0.0 0.00 0.99 0.00 99 1010.5
20260510052018 10 316 0.0 0.0 0.00 0.99 0.00 99 1010.6
20260510051335 10 316 0.0 0.0 0.00 0.99 0.00 99 1010.6
20260510050135 10 316 0.0 0.0 0.00 0.99 0.00 99 1010.7
20260510045022 10 316 0.0 0.0 0.00 0.99 0.00 99 1010.7
20260510044333 10 316 0.0 0.0 0.00 0.99 0.00 99 1010.6
20260510043131 10 316 0.0 0.0 0.00 0.99 0.00 99 1010.6
20260510041335 10 316 0.0 0.0 0.00 0.99 0.00 99 1010.6
20260510040133 10 316 0.0 0.0 0.00 0.99 0.00 99 1010.5
20260510035020 10 316 0.0 0.0 0.00 1.09 0.99 99 1010.7
20260510034337 10 316 0.0 0.0 0.00 1.09 0.99 99 1010.7
20260510033139 10 316 0.0 0.0 0.00 1.09 0.99 99 1010.7
20260510032019 10 316 0.0 0.0 0.00 1.09 0.99 99 1010.8
20260510030148 10 316 0.0 0.0 0.00 1.09 0.99 99 1010.9
20260510025021 10 316 0.0 0.0 0.00 1.09 0.99 99 1010.8
20260510024339 10 316 0.0 0.0 0.00 1.09 0.99 99 1010.7
20260510021341 10 43 0.0 0.0 0.00 1.09 0.99 99 1010.8
20260510020130 10 43 0.0 0.0 0.00 1.09 0.99 99 1010.7
20260510014335 10 43 0.0 0.0 0.00 1.09 0.99 99 1010.8
20260510012020 10 43 0.0 0.0 0.00 1.09 0.99 99 1010.8
20260510011337 10 15 0.0 0.0 0.00 1.09 0.99 99 1010.7
20260510010136 10 15 0.0 0.0 0.00 1.09 0.99 99 1010.4
20260510005021 10 15 0.0 0.0 0.00 1.09 0.99 99 1010.2
20260510004332 10 15 0.0 0.0 0.00 1.09 0.99 99 1010.1
20260510003138 10 15 0.0 0.0 0.00 1.09 0.99 99 1009.9
20260510002024 10 15 0.0 0.0 0.00 1.09 0.99 99 1010.1
20260510001334 10 15 0.0 0.0 0.00 1.09 0.99 99 1010.0
20260510000133 10 354 0.0 0.0 0.00 1.09 0.99 98 1009.8
20260509235021 11 356 0.0 0.0 0.00 1.09 0.99 99 1009.7
20260509234332 11 356 0.0 0.0 0.00 1.09 0.99 99 1009.8
20260509233131 10 293 0.0 1.6 0.00 1.09 0.99 98 1009.8
20260509232019 10 222 0.0 0.0 0.00 1.09 0.99 98 1009.8
20260509231336 11 204 0.0 0.0 0.00 1.09 0.99 98 1009.9
20260509230135 11 231 0.0 0.0 0.00 1.09 0.99 98 1010.0
20260509225016 11 228 0.0 0.0 0.00 1.09 0.99 98 1010.1
20260509224334 11 235 0.0 0.0 0.00 1.09 0.99 98 1010.1
20260509223133 11 200 0.0 0.0 0.00 1.09 0.99 98 1010.1
20260509222020 11 215 0.0 0.0 0.00 1.09 0.99 98 1010.4
20260509221331 11 215 0.0 0.0 0.00 1.09 0.99 98 1010.4
20260509220131 11 210 0.0 0.0 0.00 1.07 0.97 98 1010.4
20260509213132 11 29 0.0 0.0 0.00 0.91 0.81 97 1010.6
20260509212020 11 28 0.0 0.0 0.00 0.89 0.79 98 1010.5
20260509211330 11 29 0.0 0.0 0.00 0.86 0.76 98 1010.4
20260509205016 11 29 0.0 0.0 0.00 0.84 0.74 97 1010.5
20260509203134 11 223 0.0 0.0 0.00 0.84 0.74 97 1010.8
20260509202018 11 222 0.0 1.6 0.00 0.81 0.71 96 1010.8
20260509201335 11 233 0.0 0.0 0.00 0.76 0.66 96 1011.0
20260509200132 12 101 0.0 1.6 0.00 0.71 0.61 96 1010.9
20260509195020 12 166 0.0 0.0 0.00 0.58 0.48 95 1010.9
20260509194331 12 166 0.0 0.0 0.00 0.53 0.43 95 1011.0
20260509193136 12 166 0.0 0.0 0.00 0.48 0.38 95 1011.1
20260509192018 12 166 0.0 0.0 0.00 0.43 0.33 95 1011.0
20260509191335 12 166 0.0 0.0 0.00 0.41 0.30 95 1011.0
20260509190135 12 166 0.0 0.0 0.00 0.38 0.28 95 1010.8
20260509185017 12 166 0.0 0.0 0.00 0.38 0.28 95 1010.8
20260509184334 12 166 0.0 0.0 0.00 0.38 0.28 95 1010.8
20260509183134 12 215 0.0 0.0 0.00 0.38 0.28 94 1010.9
20260509182022 12 215 0.0 0.0 0.00 0.38 0.28 94 1010.8
20260509181332 12 216 0.0 0.0 0.00 0.38 0.28 93 1010.8
20260509180130 12 215 0.0 0.0 0.00 0.38 0.28 93 1010.8